Regional Weather Roundup
Issued by NWS

Home | Current Version | Previous Version | Text Only | Print | Product List | Glossary On
Versions: 1 2 3 4 5 6 7 8 9 10 11 12 13 14 15 16 17 18 19 20 21 22 23 24 25 26 27 28 29 30 31 32 33 34 35 36 37 38 39 40 41 42 43 44 45 46 47 48 49 50
000
ASUS46 KSEW 011810
RWRWA

WASHINGTON REGIONAL WEATHER ROUNDUP
NATIONAL WEATHER SERVICE SEATTLE WA
1100 AM PDT WED OCT 01 2014

NOTE:"FAIR" INDICATES FEW OR NO CLOUDS BELOW 12,000 FEET WITH NO
SIGNIFICANT WEATHER AND/OR OBSTRUCTIONS TO VISIBILITY.

WAZ505-507>509-011900-
SEATTLE, TACOMA, EVERETT, AND VICINITY

CITY           SKY/WX    TMP DP  RH WIND       PRES   REMARKS
EVERETT        CLOUDY    58  50  75 S6        30.23F
6HR MIN TEMP:  51; 6HR MAX TEMP:  58;

BOEING FIELD   CLOUDY    59  50  72 SE7       30.23F
6HR MIN TEMP:  54; 6HR MAX TEMP:  60;

RENTON         CLOUDY    57  51  80 S3        30.23F
6HR MIN TEMP:  54; 6HR MAX TEMP:  58;

SEATAC AIRPORT PTSUNNY   57  50  77 S7        30.24F
6HR MIN TEMP:  52; 6HR MAX TEMP:  57;

JBLM-MCCHORD   PTSUNNY   58  50  75 MISG      30.23F
6HR MIN TEMP:  44; 6HR MAX TEMP:  58;

PUYALLUP       NOT AVBL
JBLM-FT LEWIS  PTSUNNY   57  49  75 VRB2      30.22F
6HR MIN TEMP:  47; 6HR MAX TEMP:  59;

TACOMA NARROWS PTSUNNY   56  50  80 CALM      30.23F
6HR MIN TEMP:  49; 6HR MAX TEMP:  56;

$$

WAZ001-503-506-510-514-515-011900-
NORTH INTERIOR

CITY           SKY/WX    TMP DP  RH WIND       PRES   REMARKS
BELLINGHAM     CLOUDY    57  50  77 S10       30.20S
6HR MIN TEMP:  53; 6HR MAX TEMP:  58;

FRIDAY HARBOR  MOSUNNY   58  51  78 E5        30.21F
6HR MIN TEMP:  45; 6HR MAX TEMP:  58;

EASTSOUND      PTSUNNY   57  52  82 S5        30.19S
PORT ANGELES   SUNNY     59  46  62 N7        30.21F
6HR MIN TEMP:  51; 6HR MAX TEMP:  61;

NAS WHIDBEY    CLOUDY    61  50  67 SW7       30.22S
6HR MIN TEMP:  52; 6HR MAX TEMP:  62;

BURLINGTON     CLOUDY    59  54  82 S7        30.22F
$$

WAZ020-022-039-040-504-511-512-011900-
SOUTHWEST INTERIOR

CITY           SKY/WX    TMP DP  RH WIND       PRES   REMARKS
SHELTON        SUNNY     56  48  74 CALM      30.20F
6HR MIN TEMP:  47; 6HR MAX TEMP:  56;

OLYMPIA        PTSUNNY   56  49  77 CALM      30.23F
6HR MIN TEMP:  41; 6HR MAX TEMP:  57;

CHEHALIS       MOCLDY    57  52  82 S7        30.24F
KELSO          PTSUNNY   57  48  72 S3        30.28F
6HR MIN TEMP:  46; 6HR MAX TEMP:  57;

VANCOUVER      PTSUNNY   59  50  72 S5        30.25F
6HR MIN TEMP:  46; 6HR MAX TEMP:  60;

SCAPPOOSE, OR  PTSUNNY   57  52  83 VRB3      30.24F
6HR MIN TEMP:  43; 6HR MAX TEMP:  55;

PORTLAND, OR   MOSUNNY   60  50  69 CALM      30.25F
6HR MIN TEMP:  49; 6HR MAX TEMP:  60;

$$

WAZ021-516-517-011900-
WASHINGTON COAST

CITY           SKY/WX    TMP DP  RH WIND       PRES   REMARKS
FORKS          PTSUNNY   60  53  77 SW8       30.23S HAZE
6HR MIN TEMP:  45; 6HR MAX TEMP:  60;

HOQUIAM        PTSUNNY   59  54  83 SW7       30.24R
6HR MIN TEMP:  49; 6HR MAX TEMP:  59;

ASTORIA, OR    MOSUNNY   60  52  74 CALM      30.23F
6HR MIN TEMP:  47; 6HR MAX TEMP:  62;

$$

WAZ019-023-024-040-518-519-011900-
CASCADE MOUNTAINS AND COLUMBIA GORGE

CITY           SKY/WX    TMP DP  RH WIND       PRES   REMARKS
STAMPEDE PASS  NOT AVBL
TROUTDALE, OR  PTSUNNY   59  52  77 E5        30.24F
6HR MIN TEMP:  44; 6HR MAX TEMP:  59;

THE DALLES, OR SUNNY     66  43  43 NW15G21   30.18F
6HR MIN TEMP:  47; 6HR MAX TEMP:  66;

$$

WAZ026-027-041>044-520-521-011900-
EAST SLOPES

CITY           SKY/WX    TMP DP  RH WIND       PRES   REMARKS
OMAK           SUNNY     55  39  54 CALM      30.10F
6HR MIN TEMP:  33; 6HR MAX TEMP:  56;

WENATCHEE      SUNNY     62  37  39 W6        30.11F
6HR MIN TEMP:  48; 6HR MAX TEMP:  62;

ELLENSBURG     SUNNY     62  41  46 NW22G28   30.13S
6HR MIN TEMP:  43; 6HR MAX TEMP:  62;

YAKIMA         SUNNY     64  40  41 S7        30.15S
6HR MIN TEMP:  38; 6HR MAX TEMP:  64;

$$

WAZ028-034-035-011900-
COLUMBIA BASIN

CITY           SKY/WX    TMP DP  RH WIND       PRES   REMARKS
EPHRATA        SUNNY     64  37  36 S8        30.11S
6HR MIN TEMP:  46; 6HR MAX TEMP:  64;

MOSES LAKE     SUNNY     61  38  42 S6        30.13S
6HR MIN TEMP:  41; 6HR MAX TEMP:  61;

PASCO          SUNNY     65  42  43 SW10      30.16S
6HR MIN TEMP:  38; 6HR MAX TEMP:  65;

HERMISTON, OR  SUNNY     64  42  44 W13       30.17F
6HR MIN TEMP:  48; 6HR MAX TEMP:  64;

$$

WAZ036>038-011900-
NORTHEAST WASHINGTON

CITY           SKY/WX    TMP DP  RH WIND       PRES   REMARKS
SPOKANE GEIGER MOSUNNY   52  38  58 SW13      30.12S
6HR MIN TEMP:  36; 6HR MAX TEMP:  52;

SPOKANE FELTS  SUNNY     55  39  54 S6        30.13F
6HR MIN TEMP:  38; 6HR MAX TEMP:  55;

FAIRCHILD AFB  SUNNY     54  38  55 S9        30.12S
6HR MIN TEMP:  37; 6HR MAX TEMP:  54; 6HR PCP: TRACE;

COEURDALENE,ID SUNNY     52  41  66 S10       30.12F
6HR MIN TEMP:  41; 6HR MAX TEMP:  52;

DEER PARK      SUNNY     51  40  65 VRB5      30.12F
6HR MIN TEMP:  29; 6HR MAX TEMP:  51;

$$

WAZ029>033-011900-
SOUTHEAST WASHINGTON

CITY           SKY/WX    TMP DP  RH WIND       PRES   REMARKS
PULLMAN        SUNNY     53  41  63 W12       30.17S
6HR MIN TEMP:  39; 6HR MAX TEMP:  55;

LEWISTON, ID   SUNNY     59  43  55 VRB5      30.16S
6HR MIN TEMP:  42; 6HR MAX TEMP:  59;

WALLA WALLA    SUNNY     60  42  51 S13       30.19S
6HR MIN TEMP:  50; 6HR MAX TEMP:  60;

PENDLETON, OR  SUNNY     61  39  44 W10       30.17F
6HR MIN TEMP:  42; 6HR MAX TEMP:  61;

$$


USA.gov is the U.S. government's official web portal to all federal, state and local government web resources and services.